Погода в Светловодске

Погода в Светловодске : погода сейчас, прогноз погоды и архив. Всё, что Вы хотите узнать о погоде в Светловодске!

Хотите узнать прогноз погоды в Светловодске? Тогда Вам сюда: Погода в Светловодске

Поиск расширенной информации на нашем сайте:

Другие новости

Новости СМИ2

Главная страница сайта

Новости сайта

02.10.2013

Напоминаем, что на нашем новом сайте вы можете получить высокодетализированные прогнозы погоды по пунктам России, СНГ и мира (включающие важные для авиации метеовеличины, такие как направление и скорость ветра, видимость, явления погоды, количество и форма облачности, нижняя и верхняя граница облачности), а также ознакомиться с разнообразными материалами по авиационной метеорологии и подборкой полезных ссылок на эту тему.

Сайт Метеоцентр.Азия посвящён разработке технологий оптимизации авиаметеорологического обслуживания, включая проектирование и перспективное создание нескольких автоматизированных авиаметеорологических систем:
- система выпуска высокодетальных прогностических карт явлений погоды для нижнего воздушного пространства по России и ближнему зарубежью;
- система верификации прогнозов TAF (выпускаемых синоптиками официальных АМСГ РФ и ближнего зарубежья) и AUTOTAF (выпускаемых сайтом Метеоцентр.Азия) - выявление ошибок, онлайн-сопоставление с фактической погодой METAR, автоматическое внесение коррективов в прогнозы при резком отклонении фактической погоды от прогноза, подсчёт оправдываемости прогнозов по элементам и в целом;
- система обработки, анализа и отображения авиаметеорологической информации для применения провайдерами метеорологической информации.

Рекомендуем: Свежая информация стол обеденный италия на нашем сайте.

Погода в Светловодске - сегодня

Время (UTC), дата Ветер
(°,м/с) 
Видим.   Явления Облачность Т
(°С)
Тd
(°С)
f(%) Тe
(°С)
Pmin
(гПа)
dP
(гПа)
Po
(мм)
O2
(г/м3)
Тmin Tmax R s Состояние
почвы
00 20.03.17 280 (З) 6000 м  дымка{ливн. осадки}  10/10 1000 м 
[Sc]
+3 +1.2 88 +4  1001.2  743  296      0.0     
03 20.03.17 320 (СЗ) 5000 м  в посл. час ливневой дождь  10/10 930 м кучево-дожд. 
[Cb cap]
+2.6 +1.6 93 +1  1002.4  1.1  744  297           
06 20.03.17 300 (СЗ) 4000 м  в посл. час ливневой дождь  10/10 660 м кучево-дожд. 
[Cb calv]
+2.5 +1.7 94 +1  1003.9  1.5  745  297  +1.7    0.1     
09 20.03.17 300 (СЗ) 4000 м  дымка{морось}  10/10 660 м кучево-дожд. 
[Cb calv]
+3.4 +2.4 93 +3  1005.6  1.7  746  297           
12 20.03.17 290 (З) 10 км  {морось}  9/9 600 м кучево-дожд. 
[Cb cap]
+4.6 +1.6 81 +3  1006.5  747  296      0.0     
15 20.03.17 280 (З) 20000 м    8/8 600 м кучево-дожд. 
[Cb calv]
+5 +1.2 76 +5  1008.1  1.6  748  296           
18 20.03.17 270 (З) 19000 м    3/3 1000 м 
[Sc diur, vesp]
+3.4 +0.8 83 +4  1009.8  1.6  750  298    +6.4  0.0     
21 20.03.17 250 (З) 8000 м  дымка  ясно 
+2.2 +1.1 92 +3  1010.8  0.9  750  300           
00 21.03.17 260 (З) 6000 м  дымка  ясно 
+1.8 +0.7 92 +3  1012  1.2  751  301           
03 21.03.17 260 (З) 9000 м  дымка  8/0 средняя 
[Ac trans]
+1.4 -0.3 88 +2  1012.5  0.5  752  301           
06 21.03.17 290 (З) 10 км    10/10 600 м 
[Sc]
+3.3 +0.9 84 +4  1014.9  2.4  753  300  +1.4         
09 21.03.17 310 (СЗ) 10 км    9/0 средняя, верхняя 
[Ac und|Ci fib]
+4.8 +1.8 81 +4  1015.2  0.4  754  298           
12 21.03.17 320 (СЗ) 20000 м    10/5 600 м средняя 
[Sc|Ac As]
+5.9 +1.1 71 +7  1015.4  0.2  754  297           
15 21.03.17 320 (СЗ) 20000 м    8/0 верхняя 
[Ci fib]
+8.7 -3 44 +10  1015.6  0.3  754  295           
18 21.03.17 тихо ()   30000 м    ясно 
+5.9 -2.4 55 +6  1016.7  755  298    +9.4       
21 21.03.17 210 (ЮЗ) 20000 м    ясно 
+4.8 -1.8 62 +4  1016.8  0.1  755  299           
00 22.03.17 190 (Ю) 15000 м    ясно 
+3.4 -2.3 66 +3  1018.8  1.9  756  301           
03 22.03.17 200 (Ю) 12000 м    8/0 средняя 
[Ac und]
+4.3 -1.5 66 +4  1019.3  0.5  757  300           
06 22.03.17 180 (Ю) 10 км    8/0 верхняя 
[Ci fib]
+6.2 +0.2 65 +7  1020.4  1.2  758  298  +0.4         
09 22.03.17 240 (ЮЗ) 20000 м    3/0 верхняя 
[Ci fib]
+11.4 +1.4 50 +13  1020.8  0.6  758  293           
12 22.03.17 340 (С) 20000 м    6/0 верхняя 
[Ci fib]
+15.6 +2.1 40 +16  1020  -0.7  757  288           
15 22.03.17 180 (Ю) 20000 м    6/0 верхняя 
[Ci fib]
+15.8 +3.3 43 +17  1019.3  -0.7  757  288           
18 22.03.17 190 (Ю) 30000 м    3/0 верхняя 
[Ci fib]
+12.2 +3.1 54 +13  1019.5  0.1  757  292    +16.3       
21 22.03.17 210 (ЮЗ) 25000 м    ?/?  
+9.8 +1.3 55 +9  1019.6  757  294           
00 23.03.17 260 (З) 20000 м    ясно 
+8 +0.4 59 +8  1020.7  758  297           
Время (UTC), дата Ветер
(°,м/с) 
Видим.   Явления Облачность Т
(°С)
Тd
(°С)
f(%) Тe
(°С)
Pmin
(гПа)
dP
(гПа)
Po
(мм)
O2
(г/м3)
Тmin Tmax R s Состояние
почвы

Для получения пояснительной информации подведите курсор к названию столбца.

ПОГОДА в Светловодске - архив

Всё, что Вы хотите узнать о погоде в Светловодске - удобно и подробно!

Выберите нужную дату (начиная с 1 января 2015* года) и нажмите кнопку "Найти".
Будут отображены архивные сводки погоды по пункту Светловодск, начиная с указанной даты.


Отображать данные в формате CSV (для использования в таблицах Excel)


Внимание! Наш архив погоды предназначен исключительно для личного некоммерческого использования в познавательных целях. Если Вам необходимы официальные справки о состоянии погоды (для производственных, юридических, коммерческих и т.п. целей), обращайтесь в органы Росгидромета.

*Примечание: данная дата относится к архиву по метеостанциям СССР (Россия, СНГ, Балтия).
Архив по метеостанциям Зарубежной Европы и Азии (кроме Китая) хранится 10 дней, по другим регионам земного шара (Китай, Африка, Америка, Австралия, Океания) - 1 день.

Светловодск - район местоположения метеостанции


Название, широта, долгота, высота метеостанции:
Светловодск 49.1°ш. 33.2°д. 84 м над ур. моря [Украина]

Дополнительная информация

В oтличие oт бoльшинства пoгoдных сайтoв мы публикуем пoдрoбную метеoинфoрмацию в детальнoм прoфессиoнальнoм фoрмате.

Характеристики температуры и влажнoсти вoздуха измеряются на высoте 2 м в тени вдали oт зданий и деревьев.
Скoрoсть ветра измеряется на высoте 10 м (на урoвне рoста челoвека скoрoсть ветра ниже в 1.5-2 раза). Если метеoстанция нахoдится в гoрoде или в лесу, тo скoрoсть ветра занижена на 2-4 м/с пo сравнению с oткрытым местoм. Скoрoсть ветра над акватoриями крупных рек и oзёр, а также на вершинах хoлмoв на 2-5 м/с выше, чем в oбычных услoвиях.
Атмoсфернoе давление в разных тoчках местнoсти мoжет значительнo oтличаться oт давления на метеoстанции, в зависимoсти oт услoвий рельефа (при пoдъёме на 10 м давление пoнижается примернo на 1 мм рт.ст.).